Location: De Greiden
(52.9496°N, 5.9137°E)
Time: 01:48:41
(UTC+00:00)

Cosmos 405 - Pass Details

Date: 24 January 2021
Orbit: 448 x 462 km, 81.3° (Epoch: 26 February)

Event Time Altitude Azimuth Distance (km) Brightness Sun altitude
Rises 17:20:32 0° 356° (N) 2,511 6.6 -11.0°
Reaches altitude 10° 17:22:56 10° 11° (N) 1,629 5.5 -11.3°
Maximum altitude 17:25:51 23° 66° (ENE) 1,034 4.1 -11.8°
Enters shadow 17:28:27 11° 118° (ESE) 1,525 5.2 -12.1°
